sat.trackr.live / text

‹ back to catalog

STARLINK-32449

NORAD 61670 · 2024-193K

PAYLOAD ACTIVE UNKNOWN

§ Identity

Operator
Country
US
Launch date
2024-10-26
Launch site
AFETR
Launch vehicle
Mass (kg)
RCS (m²)

Purposes: comms

External: N2YO · Heavens-Above · Gunter

§ Orbital elements

Epoch: 2026-09-21T17:15:45.356544Z

Period
94.01 min
Inclination
53.1600°
Eccentricity
0.0001320
Mean motion
15.31700780 rev/d
Perigee alt
469.8 km
Apogee alt
471.6 km
Semi-major
6,848.9 km
B*
2.3913e-5
RAAN
259.4803°
Arg perigee
82.5638°
Mean anomaly
277.5513°
Rev number
10,655

§ Raw data

STARLINK-324491 61670U 24193K   26264.71927496  .00000377  00000+0  23913-4 0  99922 61670  53.1600 259.4803 0001320  82.5638 277.5513 15.31700780106555

JSON: /api/v1/satellites/61670 · /tle

For live sub-satellite position, see the globe view (requires WebGL).

§ Visibility from observer

Set your observer location to see the next 7 days of passes ≥ 10°. The values pass through the URL so the page stays shareable.

No JS? Fill the form by hand. The geolocation button needs JavaScript.